Regional Weather Roundup
Issued by NWS Northern Indiana

Home | Current Version | Previous Version | Text Only | Print | Product List | Glossary On
Versions: 1 2 3 4 5 6 7 8 9 10 11 12 13 14 15 16 17 18 19 20 21 22 23 24 25 26 27 28 29 30 31 32 33 34 35 36 37 38 39 40 41 42 43 44 45 46 47 48 49 50
000
ASUS43 KIWX 220110
RWRIWX

KIWX WEATHER ROUNDUP
NATIONAL WEATHER SERVICE NORTHERN INDIANA
800 PM EST SUN JAN 21 2018

NOTE: "FAIR" INDICATES FEW OR NO CLOUDS BELOW 12,000 FEET WITH NO
SIGNIFICANT WEATHER AND/OR OBSTRUCTIONS TO VISIBILITY.

* THESE STATIONS ARE NOT UNDER NWS QUALITY CONTROL. THEY ALSO MAY NOT
  REPORT WEATHER SUCH AS PRECIPITATION OR FOG.

INZ001>027-220200-
NORTHERN INDIANA

CITY           SKY/WX    TMP DP  RH WIND       PRES   REMARKS
GARY*          FOG       46  46 100 VRB5      29.92S VSB 1/2
VALPARAISO     FOG       45  45 100 SE6       29.93S VSB 1/4
MICHIGAN CITY* CLOUDY    45  45 100 S7        29.94S FOG
LAPORTE*       LGT RAIN  41  41 100 S5        29.94F VSB 1/4
KNOX*          CLOUDY    43  43 100 SE7       29.94S VSB 1/4
SOUTH BEND     FOG       40  40 100 E7        29.95F VSB 1/4
GOSHEN         FOG       45  44  97 S10       29.96S VSB 1/4
MONTICELLO*    CLOUDY    46  45  95 SE6       29.93F FOG
LOGANSPORT*    CLOUDY    45  45 100 S8        29.96F FOG
ROCHESTER*     FOG       46 N/A N/A S6        29.96F VSB 3/4
WARSAW*        DRZL/FOG  45  45 100 S5        29.97S VSB 3/4
AUBURN*        FOG      N/A N/A N/A CALM      29.99S VSB 1/4
FORT WAYNE     FOG       46  45  96 S8        30.00R VSB 1
HUNTINGTON*    CLOUDY    46  45  96 S6        29.99R FOG
PERU/GRISSOM   CLOUDY    47  47 100 S10       29.96S FOG
MARION*        CLOUDY    46  46 100 S12       30.00S FOG

$$
INZ028>050-220200-
CENTRAL INDIANA

CITY           SKY/WX    TMP DP  RH WIND       PRES   REMARKS
LAFAYETTE      CLOUDY    47  47 100 S9        29.94F FOG
MUNCIE*        CLOUDY    50  47  89 S10       30.00S FOG
INDIANAPOLIS   DRZL/FOG  49  49 100 SE9       29.99F VSB 1

$$
MIZ043>046-050>051-056>058-064>065-071>073-077>080-220200-
SOUTHWEST LOWER MICHIGAN

CITY           SKY/WX    TMP DP  RH WIND       PRES   REMARKS
BATTLE CREEK   FOG       39  39 100 SE6       29.98S VSB 1
BENTON HARBOR  FOG       41  40  96 SE8       29.95S VSB 3/4
COLDWATER*     FOG       40  40 100 SE3       29.98S VSB 1/2
HILLSDALE*     SNOW      37  37 100 SE3       29.98S VSB 1/4
HOLLAND        FOG       38  37  97 E7        29.96S VSB 1/2
GRAND RAPIDS   DRZL/FOG  37  36  96 E8        29.98S VSB 1/4
KALAMAZOO      FOG       40  39  97 SE3       29.97F VSB 1/2
STURGIS*       FOG       43  42  98 SE6       29.96S VSB 1/4
THREE RIVERS*  FOG       38  38 100 CALM      29.97S VSB 1/2

$$
OHZ001>008-015>018-024>025-220200-
NORTHWEST OHIO

CITY           SKY/WX    TMP DP  RH WIND       PRES   REMARKS
WAUSEON*       FOG       41  41 100 S6        30.00S VSB<1/4
DEFIANCE       FOG       43  43 100 S5        30.00F VSB 1/2
FINDLAY        CLOUDY    45  42  89 SE5       30.01S
TOLEDO EXPRESS FOG       44  44 100 CALM      30.01S VSB 3/4
TOLEDO METCALF FOG       42  41  96 S3        30.02F VSB 1/4
LIMA           CLOUDY    49  47  93 S12       30.01S

$$
AND FOR LAKE MICHIGAN COASTAL AND OPEN LAKE BUOY OBSERVATIONS

STATION/POSITION TEMP    WIND        PRES    VSBY  WAVE
                 AIR SEA DIR/SP/G                  HT/PER
                 (F)     (DEG/KT/KT) (MB)    (MI)  (FT/S)
CALUMET HARBOR    38     100/  5/  6 1012.6S
MICHIGAN CITY     44     140/ 10/ 13   N/A
BURNS HARBOR      46     170/  5/ 10 1013.9S
SAINT JOSEPH      41     110/  2/  7 1014.2

$$
&&



USA.gov is the U.S. government's official web portal to all federal, state and local government web resources and services.